| time (UTC) | temp F | wind direction | speed knots | gust knots | rain 1hr in | rain 24hr in | rain mn in | humidity % | barometer mb |
| 20260504210031 | 47 | 246 | 7.8 | 15.6 | 0.00 | 0.30 | 0.07 | 75 | 1005.4 |
| 20260504204531 | 48 | 269 | 7.8 | 16.5 | 0.00 | 0.35 | 0.07 | 74 | 1005.5 |
| 20260504203034 | 49 | 288 | 9.6 | 19.1 | 0.00 | 0.35 | 0.07 | 72 | 1005.3 |
| 20260504201508 | 49 | 255 | 7.8 | 18.2 | 0.00 | 0.35 | 0.07 | 72 | 1005.2 |
| 20260504200004 | 49 | 252 | 9.6 | 20.0 | 0.00 | 0.35 | 0.07 | 72 | 1005.1 |
| 20260504194504 | 50 | 243 | 12.2 | 20.9 | 0.00 | 0.43 | 0.07 | 70 | 1005.0 |
| 20260504193003 | 50 | 264 | 8.7 | 18.2 | 0.00 | 0.43 | 0.07 | 69 | 1004.8 |
| 20260504191502 | 50 | 269 | 10.4 | 19.1 | 0.00 | 0.43 | 0.07 | 63 | 1004.9 |
| 20260504190119 | 51 | 234 | 7.8 | 15.6 | 0.00 | 0.43 | 0.07 | 62 | 1004.6 |
| 20260504184608 | 51 | 282 | 8.7 | 18.2 | 0.00 | 0.50 | 0.07 | 62 | 1004.4 |
| 20260504183057 | 53 | 228 | 11.3 | 19.1 | 0.00 | 0.50 | 0.07 | 56 | 1004.3 |
| 20260504181558 | 56 | 219 | 8.7 | 15.6 | 0.00 | 0.50 | 0.07 | 52 | 1004.2 |
| 20260504180055 | 60 | 248 | 6.1 | 18.2 | 0.00 | 0.50 | 0.07 | 38 | 1004.3 |
| 20260504174602 | 59 | 30 | 7.8 | 20.0 | 0.00 | 0.63 | 0.07 | 37 | 1004.3 |
| 20260504173056 | 59 | 303 | 7.0 | 20.0 | 0.00 | 0.63 | 0.07 | 38 | 1004.3 |
| 20260504171551 | 58 | 224 | 8.7 | 17.4 | 0.00 | 0.63 | 0.07 | 39 | 1004.2 |
| 20260504081510 | 39 | 243 | 2.6 | 9.6 | 0.00 | 0.75 | 0.07 | 93 | 996.6 |
| 20260504044554 | 36 | 268 | 4.3 | 17.4 | 0.02 | 0.73 | 0.06 | 94 | 991.6 |
| 20260504043039 | 37 | 259 | 4.3 | 17.4 | 0.02 | 0.72 | 0.05 | 94 | 991.1 |
| 20260504041533 | 37 | 347 | 5.2 | 13.9 | 0.03 | 0.72 | 0.05 | 94 | 990.8 |
| 20260504040033 | 36 | 226 | 5.2 | 14.8 | 0.03 | 0.72 | 0.04 | 94 | 990.5 |
| 20260504034538 | 36 | 304 | 4.3 | 17.4 | 0.03 | 0.71 | 0.03 | 94 | 989.9 |
| 20260504033036 | 36 | 302 | 4.3 | 16.5 | 0.03 | 0.70 | 0.02 | 94 | 989.5 |
| 20260504031523 | 36 | 254 | 6.1 | 16.5 | 0.02 | 0.69 | 0.02 | 94 | 989.1 |
| 20260504030018 | 36 | 278 | 4.3 | 13.0 | 0.01 | 0.68 | 0.00 | 94 | 988.6 |
| 20260504024521 | 36 | 294 | 3.5 | 15.6 | 0.01 | 0.68 | 0.68 | 94 | 988.1 |
| 20260504023013 | 36 | 251 | 3.5 | 12.2 | 0.01 | 0.67 | 0.67 | 94 | 987.7 |
| 20260504021513 | 38 | 352 | 4.3 | 9.6 | 0.01 | 0.67 | 0.67 | 93 | 987.1 |
| 20260504020015 | 38 | 218 | 2.6 | 10.4 | 0.02 | 0.67 | 0.67 | 94 | 986.4 |
| 20260504014515 | 38 | 338 | 2.6 | 11.3 | 0.02 | 0.67 | 0.67 | 94 | 985.7 |
| 20260504013011 | 38 | 264 | 4.3 | 11.3 | 0.01 | 0.66 | 0.66 | 94 | 984.7 |
| 20260504011512 | 37 | 63 | 2.6 | 14.8 | 0.01 | 0.65 | 0.65 | 94 | 983.7 |
| 20260504010010 | 37 | 119 | 3.5 | 15.6 | 0.01 | 0.65 | 0.65 | 94 | 982.9 |
| 20260504004511 | 37 | 319 | 4.3 | 14.8 | 0.01 | 0.65 | 0.65 | 94 | 983.0 |
| 20260504003008 | 38 | 203 | 4.3 | 13.0 | 0.02 | 0.65 | 0.65 | 94 | 982.3 |
| 20260504001505 | 39 | 320 | 2.6 | 13.0 | 0.02 | 0.65 | 0.65 | 95 | 981.4 |
| 20260504000004 | 40 | 182 | 2.6 | 12.2 | 0.02 | 0.65 | 0.65 | 95 | 980.0 |
| 20260503234505 | 40 | 326 | 3.5 | 13.0 | 0.04 | 0.65 | 0.65 | 95 | 979.5 |
| 20260503233005 | 40 | 144 | 2.6 | 12.2 | 0.06 | 0.64 | 0.64 | 95 | 979.0 |
| 20260503231502 | 40 | 134 | 2.6 | 7.8 | 0.10 | 0.63 | 0.63 | 95 | 979.1 |
| 20260503230002 | 41 | 333 | 1.7 | 9.6 | 0.13 | 0.62 | 0.62 | 95 | 978.9 |
| 20260503224600 | 41 | 141 | 2.6 | 10.4 | 0.13 | 0.61 | 0.61 | 95 | 979.2 |
| 20260503223057 | 41 | 326 | 2.6 | 13.9 | 0.12 | 0.56 | 0.56 | 95 | 980.0 |
| 20260503221554 | 41 | 12 | 6.1 | 13.0 | 0.08 | 0.53 | 0.53 | 95 | 980.7 |
| 20260503220107 | 41 | 92 | 5.2 | 20.9 | 0.05 | 0.50 | 0.50 | 95 | 980.8 |
| 20260503214550 | 40 | 113 | 8.7 | 15.6 | 0.02 | 0.47 | 0.47 | 95 | 981.2 |
| 20260503213049 | 40 | 359 | 9.6 | 21.7 | 0.04 | 0.46 | 0.46 | 95 | 981.6 |
| 20260503211600 | 39 | 71 | 10.4 | 21.7 | 0.03 | 0.45 | 0.45 | 94 | 982.5 |